EW0395 Weather Reports


Display with metric or nautical units.
time (UTC)temp
F
wind
direction
speed
MPH
gust
MPH
rain 1hr
in
rain 24hr
in
rain mn
in
humidity
%
barometer
mb
20260504194533 66 274 2.0 6.0 0.00 0.00 0.00 40 1006.5
20260504193034 65 282 1.0 4.0 0.00 0.00 0.00 38 1006.5
20260504191532 67 206 2.0 6.0 0.00 0.00 0.00 38 1006.6
20260504190030 66 303 2.0 5.0 0.00 0.00 0.00 39 1006.5
20260504184532 66 257 2.0 5.0 0.00 0.00 0.00 39 1006.7
20260504183030 66 19 2.0 6.0 0.00 0.00 0.00 39 1006.9
20260504181529 65 259 2.0 8.0 0.00 0.00 0.00 39 1006.6
20260504180033 63 283 1.0 4.0 0.00 0.00 0.00 41 1006.7
20260504174534 63 254 1.0 5.0 0.00 0.00 0.00 41 1006.8
20260504173034 64 215 1.0 6.0 0.00 0.00 0.00 39 1006.9
20260504171532 66 186 2.0 6.0 0.00 0.00 0.00 38 1006.7
20260504081534 39 0 0.0 1.0 0.00 0.00 0.00 85 1008.9
20260504044535 31 0 0.0 0.0 0.00 0.00 0.00 88 1009.3
20260504043032 30 0 0.0 0.0 0.00 0.00 0.00 89 1009.3
20260504041542 29 0 0.0 0.0 0.00 0.00 0.00 88 1009.1
20260504040040 29 0 0.0 0.0 0.00 0.00 0.00 88 1009.0
20260504034544 29 0 0.0 0.0 0.00 0.00 0.00 88 1009.1
20260504033031 29 0 0.0 0.0 0.00 0.00 0.00 88 1009.1
20260504031534 29 0 0.0 0.0 0.00 0.00 0.00 87 1009.2
20260504030036 29 0 0.0 0.0 0.00 0.00 0.00 86 1009.2
20260504024537 30 0 0.0 1.0 0.00 0.00 0.00 84 1009.0
20260504023036 31 0 0.0 0.0 0.00 0.00 0.00 83 1009.1
20260504021534 32 0 0.0 0.0 0.00 0.00 0.00 82 1009.2
20260504020037 32 0 0.0 0.0 0.00 0.00 0.00 82 1009.1
20260504014532 33 0 0.0 0.0 0.00 0.00 0.00 79 1009.1
20260504013042 34 0 0.0 0.0 0.00 0.00 0.00 79 1008.9
20260504011530 35 0 0.0 0.0 0.00 0.00 0.00 75 1008.7
20260504010037 36 0 0.0 0.0 0.00 0.00 0.00 72 1008.5
20260504004532 38 0 0.0 0.0 0.00 0.00 0.00 70 1008.4
20260504003032 39 0 0.0 0.0 0.00 0.00 0.00 67 1008.2
20260504001536 40 0 0.0 0.0 0.00 0.00 0.00 61 1008.0
20260504000030 41 0 0.0 1.0 0.00 0.00 0.00 59 1007.9
20260503234532 42 0 0.0 1.0 0.00 0.00 0.00 56 1007.7
20260503233034 43 294 1.0 7.0 0.00 0.00 0.00 54 1007.6
20260503231534 45 0 0.0 2.0 0.00 0.00 0.00 57 1007.4
20260503230039 45 298 0.0 1.0 0.00 0.00 0.00 56 1007.4
20260503224530 45 287 0.0 2.0 0.00 0.00 0.00 52 1007.4
20260503223031 45 198 0.0 3.0 0.00 0.00 0.00 53 1007.4
20260503221533 46 0 0.0 4.0 0.00 0.00 0.00 49 1007.3
20260503220033 47 189 1.0 6.0 0.00 0.00 0.00 49 1007.2
20260503214539 46 259 1.0 4.0 0.00 0.00 0.00 50 1007.2
20260503213031 46 0 0.0 6.0 0.00 0.00 0.00 50 1007.3
20260503211533 48 205 1.0 4.0 0.00 0.00 0.00 46 1007.1
20260503210030 47 214 1.0 3.0 0.00 0.00 0.00 50 1007.0
20260503204532 47 303 2.0 7.0 0.00 0.02 0.00 49 1007.0
20260503203035 47 315 1.0 7.0 0.00 0.02 0.00 50 1006.8
20260503201532 48 275 2.0 8.0 0.00 0.02 0.00 47 1006.7
20260503200032 48 271 2.0 6.0 0.00 0.02 0.00 46 1006.6